EW0105 Weather Reports


time (UTC)temp
F
wind
direction
speed
knots
gust
knots
rain 1hr
in
rain 24hr
in
rain mn
in
humidity
%
barometer
mb
20260905204516 97 360 0.0 0.0 0.00 0.00 0.00 44 1010.1
20260905203016 96 360 0.0 5.2 0.00 0.00 0.00 45 1010.2
20260905201512 97 360 0.0 0.0 0.00 0.00 0.00 45 1010.4
20260905200104 97 360 0.0 0.0 0.00 0.00 0.00 43 1010.4
20260905194553 97 360 0.0 7.0 0.00 0.00 0.00 44 1010.4
20260905193028 97 360 0.0 0.0 0.00 0.00 0.00 44 1010.5
20260905191527 96 360 0.0 0.0 0.00 0.00 0.00 43 1010.7
20260905190013 96 360 0.0 0.0 0.00 0.00 0.00 44 1010.9
20260905184516 96 360 0.0 0.0 0.00 0.00 0.00 43 1011.1
20260905183008 95 360 0.0 0.0 0.00 0.00 0.00 43 1011.3
20260905181508 95 360 0.0 0.0 0.00 0.00 0.00 44 1011.3
20260905180006 95 360 0.0 0.0 0.00 0.00 0.00 43 1011.5
20260905174505 94 360 0.0 0.0 0.00 0.00 0.00 44 1011.5
20260905173005 95 360 0.0 0.0 0.00 0.00 0.00 43 1011.7
20260905171503 95 360 0.0 0.0 0.00 0.00 0.00 43 1011.8
20260905170044 95 360 0.0 0.0 0.00 0.00 0.00 41 1011.7
20260905164542 94 360 0.0 0.0 0.00 0.00 0.00 41 1012.1
20260905163022 94 360 0.0 0.9 0.00 0.00 0.00 41 1012.2
20260905161521 94 360 0.0 0.0 0.00 0.00 0.00 40 1012.2
20260905160004 93 360 0.0 0.0 0.00 0.00 0.00 39 1012.4
20260905154607 93 360 0.0 0.0 0.00 0.00 0.00 37 1012.2
20260905153039 92 360 0.0 0.0 0.00 0.00 0.00 35 1012.3
20260905151537 91 360 0.0 0.0 0.00 0.00 0.00 32 1012.4
20260905150018 90 360 0.0 0.0 0.00 0.00 0.00 29 1012.5
20260905144518 89 360 0.0 0.0 0.00 0.00 0.00 26 1012.3
20260905143055 89 360 0.0 0.0 0.00 0.00 0.00 25 1012.2
20260905141549 87 360 0.0 0.0 0.00 0.00 0.00 19 1012.3
20260905140027 86 134 0.0 0.0 0.00 0.00 0.00 12 1012.4
20260905134530 85 360 0.0 0.0 0.00 0.00 0.00 100 1012.4
20260905133001 83 360 0.0 0.0 0.00 0.00 0.00 100 1012.5
20260905131558 82 360 0.0 0.0 0.00 0.00 0.00 100 1012.5
20260905130036 81 360 0.0 0.0 0.00 0.00 0.00 100 1012.6
20260905124532 80 360 0.0 0.0 0.00 0.00 0.00 100 1012.5
20260905123011 79 360 0.0 0.0 0.00 0.00 0.00 100 1012.5
20260905121506 78 360 0.0 0.0 0.00 0.00 0.00 100 1012.3
20260905120052 77 360 0.0 0.0 0.00 0.00 0.00 100 1012.3
20260905114546 0 0.0 0.0 0.00 0.00 0.00 1012.2
20260905113052 0 0.0 0.0 0.00 0.00 0.00 1012.1
20260905111538 0 0.0 0.0 0.00 0.00 0.00 1012.0
20260905110036 0 0.0 0.0 0.00 0.00 0.00 1011.9
20260905104529 0 0.0 0.0 0.00 0.00 0.00 1011.9
20260905103033 0 0.0 0.0 0.00 0.00 0.00 1011.8
20260905101520 0 0.0 0.0 0.00 0.00 0.00 1011.7
20260905100105 0 0.0 0.0 0.00 0.00 0.00 1011.9
20260905094555 0 0.0 0.0 0.00 0.00 0.00 1011.9
20260905093043 0 0.0 0.0 0.00 0.00 0.00 1011.9
20260905091528 77 360 0.0 0.0 0.00 0.00 0.00 100 1011.8
20260905090008 78 360 0.0 0.0 0.00 0.00 0.00 100 1011.9
20260905084502 78 360 0.0 0.0 0.00 0.00 0.00 100 1011.8
20260905083041 78 360 0.0 0.0 0.00 0.00 0.00 100 1011.8
20260905081536 79 360 0.0 0.0 0.00 0.00 0.00 100 1011.8
20260905080018 79 360 0.0 0.0 0.00 0.00 0.00 100 1011.8
20260905074511 79 360 0.0 0.0 0.00 0.00 0.00 100 1011.7
20260905073048 79 360 0.0 0.0 0.00 0.00 0.00 100 1011.9
20260905071547 79 130 0.0 0.0 0.00 0.00 0.00 100 1011.9
20260905070034 79 130 0.0 0.0 0.00 0.00 0.00 100 1012.0
20260905064524 80 130 0.0 0.0 0.00 0.00 0.00 100 1012.0
20260905063019 80 130 0.0 0.0 0.00 0.00 0.00 100 1012.0
20260905061515 80 130 0.0 0.0 0.00 0.00 0.00 100 1012.1
20260905060010 80 130 0.0 0.0 0.00 0.00 0.00 100 1012.1
20260905054506 80 130 0.0 0.0 0.00 0.00 0.00 100 1012.1
20260905053003 81 130 0.0 0.0 0.00 0.00 0.00 100 1012.1
20260905051602 81 130 0.0 0.0 0.00 0.00 0.00 100 1012.1
20260905050053 81 130 0.0 0.0 0.00 0.00 0.00 100 1012.2
20260905044532 81 130 0.0 0.0 0.00 0.00 0.00 100 1012.2
20260905043027 82 130 0.0 0.0 0.00 0.00 0.00 100 1012.2
20260905041507 82 130 0.0 0.0 0.00 0.00 0.00 100 1012.2
20260905040001 82 130 0.0 0.0 0.00 0.00 0.00 100 1012.4
20260905034539 82 130 0.0 0.0 0.00 0.00 0.00 100 1012.5
20260905033035 83 130 0.0 0.0 0.00 0.00 0.00 100 1012.4
20260905031526 83 130 0.0 0.0 0.00 0.00 0.00 12 1012.4
20260905030024 85 130 0.0 0.0 0.00 0.00 0.00 33 1012.2
20260905024559 85 130 0.0 0.0 0.00 0.00 0.00 36 1012.2
20260905023058 85 130 0.0 0.0 0.00 0.00 0.00 37 1012.0
20260905021557 85 130 0.0 0.0 0.00 0.00 0.00 40 1012.0
20260905020108 86 130 0.0 0.0 0.00 0.00 0.00 44 1011.9
20260905014558 87 130 0.0 0.0 0.00 0.00 0.00 46 1011.7
20260905013104 87 130 0.0 0.0 0.00 0.00 0.00 48 1011.7
20260905011629 88 130 0.0 0.0 0.00 0.00 0.00 49 1011.5
20260905010054 89 130 0.0 0.0 0.00 0.00 0.00 51 1011.3
20260905004535 90 130 0.0 0.0 0.00 0.00 0.00 51 1011.3
20260905003037 91 130 0.0 0.0 0.00 0.00 0.00 49 1011.2
20260905001518 93 130 0.0 0.0 0.00 0.00 0.00 48 1011.2
20260905000013 94 130 0.0 0.0 0.00 0.00 0.00 47 1011.2
20260904234504 95 130 0.0 0.0 0.00 0.00 0.00 46 1011.3
20260904233002 95 130 0.0 0.0 0.00 0.00 0.00 45 1011.2
20260904231601 95 130 0.0 0.0 0.00 0.00 0.00 44 1011.1
20260904230100 96 127 0.0 0.0 0.00 0.00 0.00 43 1011.1
20260904224558 97 124 0.0 0.0 0.00 0.00 0.00 42 1011.1
20260904223057 97 127 0.0 0.0 0.00 0.00 0.00 42 1011.1
20260904221558 97 118 0.0 0.0 0.00 0.00 0.00 40 1011.2
20260904220058 97 111 0.0 0.0 0.00 0.00 0.00 41 1011.3
20260904214537 98 360 0.0 0.0 0.00 0.00 0.00 39 1011.4
20260904213036 98 360 0.0 0.0 0.00 0.00 0.00 40 1011.5
20260904211519 98 113 0.0 0.0 0.00 0.00 0.00 41 1011.5
20260904210017 98 360 0.0 0.0 0.00 0.00 0.00 42 1011.6